Lexington Weather

Lexington, Massachusetts, USA

25°F
2/29/2020 2:28am 
  • Lexington Conditions: Clear
  • Temperature: 25.3°F / -3.7°CColder 1.1°F than last hour.
  • Dew Point: 14.9°FIncreased 0.9°Fsince last hour.
  • Relative Humidity: 64%Increased 5.0% since last hour.
  • Wind: Calm, 10-min avg: Calm, gust: None
  • Barometer: 29.73 inFalling 0.02  inHg/hr Falling Slowly
  • Visibility: 10 miles
  • Snow Today: 0.0 in
  •   

Regional Weather Roundup
for Boston / Norton, MA

        
000
ASUS41 KBOX 261210
RWRBOX

REGIONAL WEATHER ROUNDUP
NATIONAL WEATHER SERVICE BOSTON/NORTON MA
700 AM EST WED FEB 26 2020

NOTE:  "FAIR" INDICATES FEW OR NO CLOUDS BELOW 12,000 FEET WITH NO 
SIGNIFICANT WEATHER AND/OR OBSTRUCTIONS TO VISIBILITY.

MAZALL-261300-
EASTERN MASSACHUSETTS
  
CITY           SKY/WX    TMP DP  RH WIND       PRES   REMARKS
BOSTON         CLOUDY    45  38  76 N8        29.97R                  
6HR MIN TEMP:  44; 6HR MAX TEMP:  45; 6HR PCP:  0.12;                

BEVERLY        CLOUDY    41  35  79 N6        29.97R                  
LAWRENCE       CLOUDY    39  35  86 N8        29.99R                  
BEDFORD        CLOUDY    41  37  86 CALM      29.96S FOG              
BLUE HILL        N/A     39  39 100 N9        29.93R                  
NORWOOD        CLOUDY    45  40  82 CALM      29.96R FOG              
MARSHFIELD     CLOUDY    41  41 100 VRB3      29.96R                  
PLYMOUTH       CLOUDY    42  41  96 N8        29.95R                  
TAUNTON        CLOUDY    43  41  93 N5        29.95R                  
NEW BEDFORD    CLOUDY    43  42  97 CALM      29.94R                  
$$

MAZALL-261300-
CAPE COD AND THE ISLANDS
  
CITY           SKY/WX    TMP DP  RH WIND       PRES   REMARKS
FALMOUTH       CLOUDY    41  41 100 N8        29.94R FOG              
HYANNIS        CLOUDY    43  40  89 N7        29.92S FOG              
CHATHAM        CLOUDY    43  42  97 NE8       29.95R                  
PROVINCETOWN   CLOUDY    42  42 100 NE7       29.96R                  
NANTUCKET      CLOUDY    43  42  97 NE9       29.92R                  
MARTHAS VNYRD  LGT RAIN  43  42  97 NE6       29.94R                  
$$
 
MAZALL-261300-
CENTRAL AND WESTERN MASSACHUSETTS
  
CITY           SKY/WX    TMP DP  RH WIND       PRES   REMARKS
WORCESTER      CLOUDY    38  36  92 NE10      29.95R FOG     WCI  31  
6HR MIN TEMP:  37; 6HR MAX TEMP:  41; 6HR PCP: TRACE;                

FITCHBURG      CLOUDY    39  36  89 NW3       29.98R FOG              
ORANGE         LGT RAIN  37  35  92 CALM      29.98R VSB 1            
SPRINGFIELD    LGT RAIN  39  39  99 NE5       29.96R FOG              
WESTFIELD      CLOUDY    39  37  92 N6        29.97R FOG              
NORTH ADAMS    LGT RAIN  34  33  96 CALM      29.97R FOG              
PITTSFIELD     CLOUDY    37  35  92 NE5       29.92R FOG              
$$
 
RIZALL-261300-
RHODE ISLAND
  
CITY           SKY/WX    TMP DP  RH WIND       PRES   REMARKS
PROVIDENCE     CLOUDY    44  42  93 NE6       29.95R                  
6HR MIN TEMP:  43; 6HR MAX TEMP:  45; 6HR PCP:  0.03;                

NEWPORT        CLOUDY    45  41  86 NE6       29.94R                  
BLOCK ISLAND   FOG       41  41 100 NE8       29.93S VSB 3/4          
SMITHFIELD     LGT RAIN  41  41 100 NE8       29.95R FOG              
WESTERLY       CLOUDY    47  41  80 N3        29.94R                  
$$
 
CTZALL-261300-
CONNECTICUT
  
CITY           SKY/WX    TMP DP  RH WIND       PRES   REMARKS
BRADLEY INTL   DRIZZLE   41  39  93 N7        29.96R FOG              
6HR MIN TEMP:  41; 6HR MAX TEMP:  43; 6HR PCP:  0.07;                

HARTFORD       CLOUDY    43  41  93 N8        29.96R FOG              
BRIDGEPORT     CLOUDY    45  43  93 NE8       29.93R FOG              
DANBURY        CLOUDY    43  42  97 E6        29.93R FOG              
GROTON         CLOUDY    44  43  96 NE8       29.93R                  
NEW HAVEN      FOG       46  45  96 N6        29.93R VSB 1            
CHESTER        CLOUDY    45  45 100 NE6       29.93R FOG              
MERIDEN        CLOUDY    43  42  97 NE7       29.95R FOG              
WILLIMANTIC    CLOUDY    43  41  93 N6        29.95S                  
OXFORD         LGT RAIN  43  41  93 NE9       29.93R VSB 3/4          
$$

MEZ002-015-021-024-NHZ003-005-008-011-012-014-VTZ005-008-261300-
NORTHERN NEW ENGLAND
  
CITY           SKY/WX    TMP DP  RH WIND       PRES   REMARKS
PORTLAND ME    CLOUDY    37  31  78 N5        30.00R                  
6HR MIN TEMP:  37; 6HR MAX TEMP:  41;                                

BANGOR ME      CLOUDY    35  25  66 N7        30.02R WCI  29          
CONCORD NH     CLOUDY    33  29  85 CALM      29.99R                  
MANCHESTER NH  CLOUDY    38  33  82 N3        29.97R                  
NASHUA NH      CLOUDY    37  37 100 W3        29.99R                  
PORTSMOUTH NH  CLOUDY    40  33  76 N3        29.97R                  
JAFFREY NH     LGT RAIN  35  32  88 CALM      29.96R FOG              
KEENE NH       LGT RAIN  34  34 100 CALM      29.98S FOG              
BURLINGTON VT  CLOUDY    31  23  72 N9        30.04R WCI  23          
MT. WASHINGTON SNOWSHWR  23  21  93 E5          N/A  FOG     WCI  17  
$$

NYZ052-076-261300-
EASTERN NEW YORK
  
CITY           SKY/WX    TMP DP  RH WIND       PRES   REMARKS
ALBANY         DRIZZLE   36  31  82 N7        29.98S WCI  30          
6HR MIN TEMP:  36; 6HR MAX TEMP:  39; 6HR PCP:  0.08;                

NEW YORK CITY  CLOUDY    44  42  93 NE7       29.91R FOG              
6HR MIN TEMP:  43; 6HR MAX TEMP:  44; 6HR PCP:  0.01;                

$$
 
ANZALL-261300-
MARINE OBSERVATIONS
  
STATION/POSITION TIME  TEMP    WIND        PRES    VSBY  WAVE
                       AIR SEA DIR/SP/G                  HT/PER
                 (UTC) (F)     (DEG/KT/KT) (MB)    (MI)  (FT/S)
BOSTON BUOY      1150   41 42   30/  8/ 10 1014.2R         2/ 9
BUZZARDS BAY     1100           40/ 10/ 11 1014.0S
NANTUCKET SOUND  1140                        N/A           1
MASS BAY-STELLWA 1104   40 40   30/  8/  8 1012.7R  1 7/8  2/ 8
ISLE OF SHOALS   1200   41      20/ 13/ 14 1014.7R
S OF BLOCK IS    1200      44                N/A           4/ 9
$$

......................KEY.........................
  SKY/WX - SKY CONDITION/PRESENT WEATHER
  TMP    - TEMPERATURE IN FAHRENHEIT
  DWPT   - DEWPOINT IN FAHRENHEIT
  RH     - RELATIVE HUMIDITY IN PERCENT
  WIND   - DIRECTION AND SPEED IN MPH
  PRES   - MEAN SEA LEVEL PRESSURE IN INCHES OF HG
  WCI    - WIND CHILL INDEX
  VSB    - VISIBILITY IN MILES
  HX     - HEAT INDEX
  TC     - TEMPERATURE IN CELSIUS
  VRB    - VARIABLE WIND DIRECTION
  N/A    - NOT AVAILABLE
  
      

Other recent Regional Weather Roundups

Sat Feb 29, 2:10am

Sat Feb 29, 2:00am

Sat Feb 29, 1:10am

Sat Feb 29, 1:00am

Sat Feb 29, 12:10am

Sat Feb 29, 12:00am

Fri Feb 28, 11:10pm

Fri Feb 28, 11:00pm

Fri Feb 28, 10:10pm

Fri Feb 28, 10:00pm

Fri Feb 28, 9:10pm

Fri Feb 28, 9:00pm

Fri Feb 28, 8:10pm

Fri Feb 28, 8:01pm

Fri Feb 28, 7:10pm

Fri Feb 28, 7:00pm

Fri Feb 28, 6:10pm

Fri Feb 28, 6:01pm

Fri Feb 28, 5:10pm

Fri Feb 28, 5:00pm

Fri Feb 28, 4:10pm

Fri Feb 28, 4:01pm

Fri Feb 28, 3:10pm

Fri Feb 28, 3:00pm

Fri Feb 28, 2:10pm

Fri Feb 28, 2:00pm

Fri Feb 28, 1:10pm

Fri Feb 28, 1:01pm

Fri Feb 28, 12:10pm

Fri Feb 28, 12:01pm

Fri Feb 28, 11:10am

Fri Feb 28, 11:00am

Fri Feb 28, 10:10am

Fri Feb 28, 10:00am

Fri Feb 28, 9:10am

Fri Feb 28, 9:01am

Fri Feb 28, 8:10am

Fri Feb 28, 8:00am

Fri Feb 28, 7:10am

Fri Feb 28, 7:00am

Fri Feb 28, 6:10am

Fri Feb 28, 6:00am

Fri Feb 28, 5:10am

Fri Feb 28, 5:00am

Fri Feb 28, 4:10am

Fri Feb 28, 4:00am

Fri Feb 28, 3:10am

Fri Feb 28, 3:00am

Fri Feb 28, 2:10am

Fri Feb 28, 2:00am

Fri Feb 28, 1:10am

Fri Feb 28, 1:00am

Fri Feb 28, 12:10am

Fri Feb 28, 12:00am

Thu Feb 27, 11:10pm

Thu Feb 27, 11:01pm

Thu Feb 27, 10:10pm

Thu Feb 27, 10:00pm

Thu Feb 27, 9:10pm

Thu Feb 27, 9:00pm

Thu Feb 27, 8:10pm

Thu Feb 27, 8:01pm

Thu Feb 27, 7:10pm

Thu Feb 27, 7:00pm

Wed Feb 26, 11:10am

Wed Feb 26, 11:00am

Wed Feb 26, 10:10am

Wed Feb 26, 10:01am

Wed Feb 26, 9:10am

Wed Feb 26, 9:00am

Wed Feb 26, 8:10am

Wed Feb 26, 8:00am

Wed Feb 26, 7:00am

Wed Feb 26, 6:10am

Wed Feb 26, 6:00am

Wed Feb 26, 5:10am

Wed Feb 26, 5:00am

Wed Feb 26, 4:10am

Wed Feb 26, 4:00am

Wed Feb 26, 3:10am

Wed Feb 26, 3:00am

Meta data:

ID: 409b775b-516b-4d18-ace9-81d96490ec5d
Link: https://api.weather.gov/products/409b775b-516b-4d18-ace9-81d96490ec5d